map of LDB home
LDB - Airport
Location
City:  Londrina, Paraná, Brazil
ICAO:SBLO
IATA:LDB

Details
Type:Airport (Aerodrome, Airfield)
Use:Public/Civil
Latitude:23°20'01"S (-23.333624)
Longitude:51°07'48"W (-51.130071)
Datum:WGS 1984
Elevation:1867 ft (569 m)
Variation:19.23°W (WMM2015v2 magnetic declination)
-0.14° annual change
Runways:1
Longest:6890 × 148 ft (2100 × 45 m), paved

Time
Time Zone:UTC-3 (DST-2)
Local Time:

Weather
METAR:SBLO 041400Z 08010KT 9999 BKN030 26/18 Q1019
TAF:SBLO 040830Z 0412/0424 12007KT 9999 SCT025 TN25/0412Z TX29/0418Z
BECMG 0412/0414 SCT040
BECMG 0422/0424 CAVOK
RMK PER

Related Locations
Nearby:
Farthest:OKA: 12220 mi / 19667 km
Okinawa [Naha Airport / Naha AB], Ryukyu Island, 47, JP

Find:

   beyond  
but within

Other Information
Maps:
NOTAMs:
Links:
Sources:

  
  • flag of Brazil
  • flag of Paraná
  

Sectional Chart

Flight Planning
at skyvector.com

Satellite Image

Google Maps Satellite view

 

Copyright © 2004-2019 Karl L. Swartz. All rights reserved.
The Great Circle Mapper name and logo are trademarks of the Great Circle Mapper.
All other trademarks mentioned herein belong to their respective owners.
Please see credits for attibutions and further copyright information.

  Follow gcmap on Facebook Follow gcmap on Twitter GCmap on LinkedIn

hCard Microformat

Geo Microformat